Weather History for Bluefield, WV

Change the Weather History Date:

Tuesday, February 19, 2013

  Actual Average Record
Temperature  
Mean Temperature 39 °F 38 °F  
Max Temperature 47 °F 47 °F 66 °F (1984)
Min Temperature 30 °F 30 °F 3 °F (1993)
Degree Days  
Heating Degree Days 26 27  
Month to date heating degree days 571 542  
Since 1 July heating degree days 3147 3262  
Cooling Degree Days 0 0  
Month to date cooling degree days 0 0  
Year to date cooling degree days 1 0  
Moisture  
Dew Point 24 °F    
Average Humidity 55    
Maximum Humidity 76    
Minimum Humidity 33    
Precipitation  
Precipitation 0.05 in 0.10 in 0.74 in (2000)
Month to date precipitation 1.08 1.84  
Year to date precipitation 7.08 4.74  
Snow  
Snow 0.40 in - - ()
Month to date snowfall 11.9  
Since 1 July snowfall 40.4  
Snow Depth 0.00 in    
Sea Level Pressure  
Sea Level Pressure 29.87 in    
Wind  
Wind Speed 15 mph (WSW)    
Max Wind Speed 30 mph    
Max Gust Speed 41 mph    
Visibility 10 miles    
Events Rain , Snow    
T = Trace of Precipitation, MM = Missing Value Source: NWS Daily Summary

Daily Weather History Graph

Daily Weather History Graph

Search for Another Location

Airport:

Trip Planner

Search our weather history database for the weather conditions in past years. The results will help you decide how hot, cold, wet, or windy it might be!

Date:

Astronomy

Feb. 19, 2013 Rise Set
Actual Time 7:08 AM EST 6:09 PM EST
Civil Twilight 6:42 AM EST 6:35 PM EST
Nautical Twilight 6:11 AM EST 7:05 PM EST
Astronomical Twilight 5:41 AM EST 7:36 PM EST
Moon 12:43 PM EST (2/19) 2:35 AM EST (2/19)
Length of Visible Light 11h 53m
Length of Day
11h 00m
Waxing Gibbous, 67% of the Moon is Illuminated
Feb 19
Waxing Gibbous
Feb 25
Full
Mar 4
Last Quarter
Mar 11
New
Mar 19
First Quarter

Hourly Weather History & Observations

Time (EST) Temp. Windchill Dew Point Humidity Pressure Visibility Wind Dir Wind Speed Gust Speed Precip Events Conditions
12:52 AM 42.1 °F 34.5 °F 19.9 °F 41% 29.95 in 10.0 mi South 15.0 mph 26.5 mph N/A   Partly Cloudy
1:52 AM 42.1 °F 33.3 °F 19.9 °F 41% 29.94 in 10.0 mi South 19.6 mph 27.6 mph N/A   Overcast
2:52 AM 41.0 °F 35.2 °F 19.9 °F 43% 29.89 in 10.0 mi South 9.2 mph 23.0 mph N/A   Partly Cloudy
3:52 AM 42.1 °F 35.2 °F 19.9 °F 41% 29.90 in 10.0 mi South 12.7 mph 20.7 mph N/A   Overcast
4:52 AM 37.9 °F 30.0 °F 27.0 °F 65% 29.91 in 5.0 mi SSW 12.7 mph 18.4 mph N/A   Haze
5:13 AM 37.4 °F 30.8 °F 28.4 °F 70% 29.93 in 8.0 mi SSW 9.2 mph 21.9 mph 0.01 in Snow Light Snow
5:52 AM 37.0 °F 29.8 °F 30.0 °F 76% 29.91 in 9.0 mi SSW 10.4 mph 18.4 mph 0.01 in Snow Light Snow
6:52 AM 37.0 °F 29.3 °F 30.9 °F 79% 29.89 in 8.0 mi SSW 11.5 mph 21.9 mph 0.00 in Snow Light Snow
7:52 AM 37.9 °F 29.2 °F 30.9 °F 76% 29.86 in 10.0 mi South 15.0 mph 23.0 mph 0.00 in   Overcast
8:52 AM 39.0 °F 32.3 °F 30.9 °F 73% 29.86 in 10.0 mi SSW 10.4 mph 20.7 mph N/A   Overcast
9:34 AM 41.0 °F 34.7 °F 32.0 °F 70% 29.84 in 10.0 mi SW 10.4 mph 20.7 mph N/A   Overcast
9:52 AM 42.1 °F 34.9 °F 33.1 °F 70% 29.84 in 10.0 mi SSW 13.8 mph 20.7 mph N/A   Overcast
10:52 AM 42.1 °F 34.2 °F 34.0 °F 73% 29.85 in 10.0 mi West 16.1 mph 25.3 mph 0.00 in Rain Light Rain
11:52 AM 43.0 °F 36.0 °F 35.1 °F 74% 29.83 in 10.0 mi WSW 13.8 mph 28.8 mph 0.00 in   Overcast
1:32 PM 44.6 °F 37.2 °F 33.8 °F 66% 29.79 in 10.0 mi West 17.3 mph 31.1 mph 0.01 in   Mostly Cloudy
1:52 PM 45.0 °F 37.1 °F 30.9 °F 58% 29.78 in 10.0 mi WSW 19.6 mph 36.8 mph 0.01 in   Partly Cloudy
2:35 PM 39.2 °F 31.2 °F 32.0 °F 75% 29.78 in 10.0 mi WNW 13.8 mph 23.0 mph 0.00 in   Mostly Cloudy
2:52 PM 41.0 °F 34.3 °F 30.9 °F 67% 29.78 in 10.0 mi West 11.5 mph 26.5 mph 0.00 in Rain Light Rain
3:52 PM 45.0 °F 37.4 °F 19.9 °F 37% 29.78 in 10.0 mi West 18.4 mph 39.1 mph 0.00 in   Mostly Cloudy
4:52 PM 43.0 °F 34.2 °F 16.0 °F 34% 29.82 in 10.0 mi West 20.7 mph 39.1 mph N/A   Mostly Cloudy
5:52 PM 39.9 °F 31.8 °F 15.1 °F 36% 29.86 in 10.0 mi West 15.0 mph 32.2 mph N/A   Mostly Cloudy
7:52 PM 36.0 °F 26.7 °F 10.9 °F 36% 29.93 in 10.0 mi WNW 15.0 mph 31.1 mph N/A   Clear
8:52 PM 34.0 °F 24.6 °F 12.0 °F 40% 29.94 in 10.0 mi WNW 13.8 mph 23.0 mph N/A   Clear
9:52 PM 33.1 °F 22.6 °F 10.9 °F 40% 29.95 in 10.0 mi West 16.1 mph 29.9 mph N/A   Clear
10:52 PM 30.9 °F 18.7 °F 12.0 °F 46% 29.95 in 10.0 mi West 19.6 mph 29.9 mph N/A   Clear
11:52 PM 30.0 °F 18.3 °F 10.0 °F 43% 29.96 in 10.0 mi West 17.3 mph 35.7 mph N/A   Clear